{"data":{"norad_id":66638,"epoch":"2026-09-20T10:17:52.724544Z","epoch_age_seconds":93024,"freshness":"FRESH","line1":"1 66638U 25271X   26263.42908246  .00008913  00000+0  27462-3 0  9994","line2":"2 66638  53.1584 313.8686 0002439  97.1827 262.9453 15.34400021 47400","mean_motion":15.34400021,"eccentricity":0.0002439,"inclination_deg":53.1584,"raan_deg":313.8686,"arg_perigee_deg":97.1827,"mean_anomaly_deg":262.9453,"bstar":0.00027462,"rev_number":4740,"period_min":93.847756796922,"perigee_km":461.03469687132,"apogee_km":464.37165871004,"semimajor_km":6840.8401777907,"source":"CELESTRAK","updated_at":"2026-09-21T09:00:35.986408Z"}}